Weather History for Kaiser, MO

Change the Weather History Date:

Saturday, April 6, 2013

  Actual Average Record
Temperature  
Mean Temperature 63 °F -  
Max Temperature 75 °F 62 °F 80 °F (2001)
Min Temperature 51 °F 41 °F 30 °F (2002)
Degree Days  
Heating Degree Days 2    
Growing Degree Days 13 (Base 50)    
Moisture  
Dew Point 39 °F    
Average Humidity 41    
Maximum Humidity 50    
Minimum Humidity 27    
Precipitation  
Precipitation 0.00 in - - ()
Sea Level Pressure  
Sea Level Pressure 29.87 in    
Wind  
Wind Speed 11 mph (SSW)    
Max Wind Speed 24 mph    
Max Gust Speed 33 mph    
Visibility 10 miles    
Events      
Averages and records for this station are not official NWS values.
T = Trace of Precipitation, MM = Missing Value Source: NWS Daily Summary

Daily Weather History Graph

Daily Weather History Graph

Search for Another Location

Airport:

Trip Planner

Search our weather history database for the weather conditions in past years. The results will help you decide how hot, cold, wet, or windy it might be!

Date:

Astronomy

Apr. 06, 2013 Rise Set
Actual Time 6:47 AM CDT 7:38 PM CDT
Civil Twilight 6:20 AM CDT 8:05 PM CDT
Nautical Twilight 5:48 AM CDT 8:36 PM CDT
Astronomical Twilight 5:16 AM CDT 9:09 PM CDT
Moon 4:28 AM CDT (4/6) 4:10 PM CDT (4/6)
Length of Visible Light 13h 44m
Length of Day
12h 50m
Waning Crescent, 15% of the Moon is Illuminated
Apr 6
Waning Crescent
Apr 10
New
Apr 18
First Quarter
Apr 25
Full
May 2
Last Quarter

Hourly Weather History & Observations

Time (CDT) Temp. Dew Point Humidity Pressure Visibility Wind Dir Wind Speed Gust Speed Precip Events Conditions
12:15 AM 57.2 °F 33.8 °F 41% 29.99 in 10.0 mi South 6.9 mph - N/A   Clear
12:35 AM 57.2 °F 33.8 °F 41% 29.99 in 10.0 mi South 8.1 mph - N/A   Clear
12:55 AM 57.2 °F 33.8 °F 41% 29.98 in 10.0 mi South 9.2 mph - N/A   Clear
1:15 AM 57.2 °F 33.8 °F 41% 29.99 in 10.0 mi South 10.4 mph - N/A   Clear
1:35 AM 57.2 °F 33.8 °F 41% 29.98 in 10.0 mi South 6.9 mph - N/A   Clear
1:55 AM 55.4 °F 33.8 °F 44% 29.97 in 10.0 mi South 5.8 mph - N/A   Clear
2:15 AM 55.4 °F 33.8 °F 44% 29.97 in 10.0 mi South 6.9 mph - N/A   Clear
2:35 AM 55.4 °F 33.8 °F 44% 29.97 in 10.0 mi South 8.1 mph - N/A   Clear
2:55 AM 55.4 °F 33.8 °F 44% 29.97 in 10.0 mi South 5.8 mph - N/A   Clear
3:15 AM 53.6 °F 33.8 °F 47% 29.96 in 10.0 mi South 4.6 mph - N/A   Clear
3:35 AM 53.6 °F 33.8 °F 47% 29.96 in 10.0 mi South 6.9 mph - N/A   Clear
3:55 AM 53.6 °F 33.8 °F 47% 29.95 in 10.0 mi South 8.1 mph - N/A   Clear
4:15 AM 53.6 °F 33.8 °F 47% 29.94 in 10.0 mi South 6.9 mph - N/A   Clear
4:35 AM 53.6 °F 33.8 °F 47% 29.94 in 10.0 mi South 8.1 mph - N/A   Clear
4:55 AM 53.6 °F 33.8 °F 47% 29.93 in 10.0 mi South 8.1 mph - N/A   Clear
5:15 AM 53.6 °F 33.8 °F 47% 29.93 in 10.0 mi South 8.1 mph - N/A   Clear
5:35 AM 53.6 °F 33.8 °F 47% 29.93 in 10.0 mi South 6.9 mph - N/A   Clear
5:55 AM 51.8 °F 33.8 °F 50% 29.93 in 10.0 mi South 8.1 mph - N/A   Clear
6:15 AM 51.8 °F 33.8 °F 50% 29.92 in 10.0 mi South 9.2 mph - N/A   Clear
6:35 AM 53.6 °F 33.8 °F 47% 29.92 in 10.0 mi South 10.4 mph 17.3 mph N/A   Clear
6:55 AM 53.6 °F 33.8 °F 47% 29.93 in 10.0 mi South 9.2 mph - N/A   Clear
7:15 AM 53.6 °F 33.8 °F 47% 29.94 in 10.0 mi South 9.2 mph - N/A   Clear
7:35 AM 53.6 °F 33.8 °F 47% 29.94 in 10.0 mi South 11.5 mph - N/A   Clear
7:55 AM 53.6 °F 33.8 °F 47% 29.93 in 10.0 mi South 9.2 mph - N/A   Clear
8:15 AM 55.4 °F 33.8 °F 44% 29.92 in 10.0 mi South 12.7 mph 19.6 mph N/A   Clear
8:35 AM 55.4 °F 35.6 °F 47% 29.92 in 10.0 mi SSW 9.2 mph 19.6 mph N/A   Clear
8:55 AM 57.2 °F 35.6 °F 44% 29.93 in 10.0 mi SSW 9.2 mph 20.7 mph N/A   Clear
9:15 AM 57.2 °F 35.6 °F 44% 29.92 in 10.0 mi South 10.4 mph 20.7 mph N/A   Clear
9:35 AM 57.2 °F 35.6 °F 44% 29.91 in 10.0 mi South 12.7 mph 18.4 mph N/A   Clear
9:55 AM 60.8 °F 35.6 °F 39% 29.92 in 10.0 mi SW 10.4 mph - N/A   Clear
10:15 AM 60.8 °F 37.4 °F 42% 29.90 in 10.0 mi South 15.0 mph 27.6 mph N/A   Clear
10:35 AM 62.6 °F 37.4 °F 39% 29.89 in 10.0 mi South 15.0 mph 27.6 mph N/A   Clear
10:55 AM 62.6 °F 37.4 °F 39% 29.89 in 10.0 mi SSW 21.9 mph 27.6 mph N/A   Clear
11:15 AM 64.4 °F 39.2 °F 40% 29.87 in 10.0 mi South 18.4 mph 21.9 mph N/A   Clear
11:35 AM 64.4 °F 39.2 °F 40% 29.86 in 10.0 mi South 12.7 mph 28.8 mph N/A   Clear
11:55 AM 64.4 °F 39.2 °F 40% 29.86 in 10.0 mi SSW 18.4 mph 23.0 mph N/A   Clear
12:15 PM 64.4 °F 37.4 °F 37% 29.85 in 10.0 mi SSW 17.3 mph 27.6 mph N/A   Partly Cloudy
12:35 PM 64.4 °F 39.2 °F 40% 29.85 in 10.0 mi South 15.0 mph 27.6 mph N/A   Partly Cloudy
12:55 PM 68.0 °F 39.2 °F 35% 29.84 in 10.0 mi SSW 20.7 mph 32.2 mph N/A   Clear
1:15 PM 69.8 °F 39.2 °F 33% 29.83 in 10.0 mi SSW 18.4 mph 24.2 mph N/A   Clear
1:35 PM 69.8 °F 41.0 °F 35% 29.82 in 10.0 mi South 16.1 mph 26.5 mph N/A   Clear
1:55 PM 71.6 °F 41.0 °F 33% 29.81 in 10.0 mi SSW 19.6 mph 27.6 mph N/A   Clear
2:15 PM 69.8 °F 39.2 °F 33% 29.80 in 10.0 mi SSW 15.0 mph 23.0 mph N/A   Clear
2:35 PM 73.4 °F 42.8 °F 33% 29.78 in 10.0 mi SSW 19.6 mph 25.3 mph N/A   Clear
2:55 PM 73.4 °F 37.4 °F 27% 29.78 in 10.0 mi WSW 17.3 mph 28.8 mph N/A   Clear
3:15 PM 71.6 °F 39.2 °F 31% 29.77 in 10.0 mi SSW 24.2 mph 31.1 mph N/A   Clear
3:35 PM 71.6 °F 39.2 °F 31% 29.77 in 10.0 mi SW 18.4 mph 27.6 mph N/A   Clear
3:55 PM 71.6 °F 41.0 °F 33% 29.76 in 10.0 mi SW 16.1 mph 26.5 mph N/A   Clear
4:15 PM 73.4 °F 39.2 °F 29% 29.75 in 10.0 mi SW 15.0 mph 24.2 mph N/A   Clear
4:35 PM 73.4 °F 41.0 °F 31% 29.75 in 10.0 mi WSW 20.7 mph 25.3 mph N/A   Clear
4:55 PM 73.4 °F 41.0 °F 31% 29.75 in 10.0 mi SW 18.4 mph 33.4 mph N/A   Clear
5:15 PM 75.2 °F 42.8 °F 31% 29.75 in 10.0 mi WSW 17.3 mph 25.3 mph N/A   Clear
5:35 PM 73.4 °F 42.8 °F 33% 29.76 in 10.0 mi SW 23.0 mph 31.1 mph N/A   Clear
5:55 PM 73.4 °F 42.8 °F 33% 29.77 in 10.0 mi SW 15.0 mph 29.9 mph N/A   Scattered Clouds
6:15 PM 73.4 °F 42.8 °F 33% 29.77 in 10.0 mi SW 15.0 mph 21.9 mph N/A   Mostly Cloudy
6:35 PM 73.4 °F 42.8 °F 33% 29.78 in 10.0 mi SW 12.7 mph 20.7 mph N/A   Overcast
6:55 PM 71.6 °F 42.8 °F 35% 29.79 in 10.0 mi WSW 12.7 mph 21.9 mph N/A   Overcast
7:15 PM 71.6 °F 44.6 °F 38% 29.79 in 10.0 mi WSW 10.4 mph 21.9 mph N/A   Scattered Clouds
7:35 PM 69.8 °F 44.6 °F 40% 29.80 in 10.0 mi West 13.8 mph 19.6 mph N/A   Clear
7:55 PM 69.8 °F 44.6 °F 40% 29.81 in 10.0 mi West 11.5 mph - N/A   Clear
8:15 PM 68.0 °F 44.6 °F 43% 29.81 in 10.0 mi WSW 9.2 mph - N/A   Clear
8:35 PM 68.0 °F 44.6 °F 43% 29.81 in 10.0 mi SW 8.1 mph 17.3 mph N/A   Clear
8:55 PM 68.0 °F 44.6 °F 43% 29.82 in 10.0 mi SW 6.9 mph - N/A   Clear
9:15 PM 66.2 °F 44.6 °F 46% 29.83 in 10.0 mi SW 10.4 mph - N/A   Clear
9:35 PM 66.2 °F 44.6 °F 46% 29.83 in 10.0 mi SW 9.2 mph 16.1 mph N/A   Clear
9:55 PM 66.2 °F 44.6 °F 46% 29.84 in 10.0 mi SW 10.4 mph - N/A   Clear
10:15 PM 66.2 °F 44.6 °F 46% 29.84 in 10.0 mi SW 10.4 mph - N/A   Clear
10:35 PM 64.4 °F 44.6 °F 49% 29.84 in 10.0 mi SW 10.4 mph - N/A   Clear
10:55 PM 64.4 °F 44.6 °F 49% 29.84 in 10.0 mi SW 9.2 mph - N/A   Mostly Cloudy
11:15 PM 64.4 °F 44.6 °F 49% 29.84 in 10.0 mi SW 8.1 mph - N/A   Mostly Cloudy
11:35 PM 64.4 °F 44.6 °F 49% 29.84 in 10.0 mi SW 8.1 mph - N/A   Partly Cloudy
11:55 PM 64.4 °F 44.6 °F 49% 29.84 in 10.0 mi SW 6.9 mph - N/A   Clear